Regional Weather Roundup
Issued by NWS Sioux Falls, SD

Home | Current Version | Previous Version | Graphics & Text | Print | Product List | Glossary On
Versions: 1 2 3 4 5 6 7 8 9 10 11 12 13 14 15 16 17 18 19 20 21 22 23 24 25 26 27 28 29 30 31 32 33 34 35 36 37 38 39 40 41 42 43 44 45 46 47 48 49 50
000
ASUS43 KFSD 250602
RWRFSD

WEATHER ROUNDUP FOR SE SOUTH DAKOTA/SW MINNESOTA/NW IOWA
NATIONAL WEATHER SERVICE SIOUX FALLS SD
100 AM CDT SAT APR 25 2015

NOTE: "FAIR" INDICATES FEW OR NO CLOUDS BELOW 12,000 FEET WITH NO
SIGNIFICANT WEATHER AND OR OBSTRUCTIONS TO VISIBILITY.


SDZ038>040-050-052>070-250700-
SOUTHEAST SOUTH DAKOTA

CITY           SKY/WX    TMP DP  RH WIND       PRES   REMARKS
BROOKINGS      CLOUDY    48  46  93 SE17      29.64F
CHAMBERLAIN    NOT AVBL
HURON          CLOUDY    50  46  86 E25G37    29.58R
6HR MIN TEMP:  49; 6HR MAX TEMP:  72; 6HR PCP:  0.04;

MADISON        CLOUDY    46  46 100 E22G30    29.64F
MITCHELL       CLOUDY    55  52  89 E23G30    29.54R
6HR MIN TEMP:  54; 6HR MAX TEMP:  68; 6HR PCP:  0.53;

SIOUX FALLS    HVY RAIN  49  48  97 NE18      29.65R FOG
6HR MIN TEMP:  49; 6HR MAX TEMP:  67; 6HR PCP:  0.15;

WINNER         MOCLDY    57  46  66 NW12      29.54R
YANKTON        FAIR      59  52  77 E6        29.58S
$$

MNZ071-072-080-081-089-090-097-098-250700-
SOUTHWEST MINNESOTA

CITY           SKY/WX    TMP DP  RH WIND       PRES   REMARKS
FAIRMONT       CLOUDY    45  19  36 E14       29.71R
JACKSON        CLOUDY    45  41  87 E14       29.69F
LUVERNE        CLOUDY    48  45  87 E9        29.65R
MARSHALL       CLOUDY    45  39  81 SE12G18   29.70F
6HR MIN TEMP:  45; 6HR MAX TEMP:  50;

MONTEVIDEO     CLOUDY    45  41  87 SE13      29.75R
PIPESTONE      CLOUDY    46  45  93 E7        29.69S
REDWOOD FALLS  CLOUDY    45  40  82 E13       29.73R
TRACY          CLOUDY    46  43  90 E8        29.71S
WORTHINGTON    CLOUDY    45  41  87 E15       29.67F
$$

IAZ001>003-012>014-020>022-031-032-NEZ013-014-SDZ071-250700-
NORTHWEST IOWA

CITY           SKY/WX    TMP DP  RH WIND       PRES   REMARKS
DENISON        CLOUDY    50  50 100 E12       29.57S FOG
ESTHERVILLE    CLOUDY    45  41  86 E16       29.68S
SIOUX CITY     CLOUDY    56  50  80 E15       29.57S
6HR MIN TEMP:  56; 6HR MAX TEMP:  72;

SPENCER        CLOUDY    47  43  86 E16       29.66R
6HR MIN TEMP:  47; 6HR MAX TEMP:  54;

$$

ABBREVIATIONS USED IN REMARKS
   TC - TEMPERATURE IN CELSIUS
  WCI - WIND CHILL INDEX
   HX - HEAT INDEX
  VSB - VISIBILITY




USA.gov is the U.S. government's official web portal to all federal, state and local government web resources and services.